Location: Cilrhedyn
(51.9844°N, 4.5064°W)
Time: 10:49:47
(UTC+00:00)

Daily predictions for brighter satellites

Satellite Brightness Start Highest point End
(mag) Time Altitude Azimuth Time Altitude Azimuth Time Altitude Azimuth
SL-4 R/B 2.5 20:23:41 10° SW 20:27:20 34° SSE 20:30:46 10° E
Cosmos 921 Rocket 3.8 20:25:38 10° N 20:29:34 36° ENE 20:33:27 10° SE
Cosmos 1140 Rocket 3.8 20:25:56 10° S 20:30:54 45° ESE 20:35:54 10° NE
Meteor 1-4 Rocket 2.7 20:27:55 10° N 20:31:21 52° ENE 20:34:44 10° SSE
Cosmos 1441 Rocket 3.1 20:28:28 10° S 20:32:14 78° ESE 20:36:00 10° NNE
CENTAUR R/B 3.9 20:29:04 10° SE 20:32:48 17° ESE 20:36:52 10° ENE
FALCON 9 DEB 3.9 20:38:49 10° SSW 20:42:00 33° SSE 20:45:12 10° E
H-2A R/B 4.2 20:38:48 10° NNE 20:42:34 33° E 20:46:20 10° SSE
Resurs 01 Rocket 1.7 20:39:46 10° SSE 20:44:12 88° WSW 20:48:40 10° NNW
Lacrosse 5 2.0 20:39:22 10° WNW 20:44:28 74° NNE 20:49:33 10° ESE
Cosmos 1862 Rocket 3.7 20:44:08 10° N 20:48:34 59° ENE 20:52:57 10° SSE
Sich 1 3.1 20:44:14 10° S 20:48:40 88° W 20:53:09 10° N
OBJECT-B 2.1 20:46:15 10° S 20:49:23 41° W 20:52:33 10° NNW
Cosmos 1934 Rocket 4.1 20:43:40 10° S 20:49:55 60° E 20:56:10 10° NNE
Cosmos 389 Rocket 4.3 20:47:04 10° NNW 20:50:07 30° W 20:53:10 10° SSW
SPOT 1/Viking Rocket 3.9 20:47:18 10° SE 20:52:20 51° ENE 20:57:24 10° N
GP-B 3.4 20:49:46 10° N 20:54:06 48° E 20:58:24 10° SSE
Terra 3.2 20:52:17 11° ESE 20:56:01 26° ENE 20:59:56 10° N
Cosmos 614 Rocket 4.3 20:51:20 10° SSW 20:56:30 74° WNW 21:01:45 10° NNE
SL-16 R/B 2.9 20:51:49 10° NNW 20:57:16 44° NE 21:02:09 13° ESE
Cosmos 1238 Rocket 3.3 20:57:38 15° SE 20:59:22 24° E 21:01:51 10° NE
USA 32 4.3 20:55:09 10° SSE 21:00:09 49° E 21:05:12 10° NNE
Cosmos 2219 Rocket 4.3 20:57:28 10° NNW 21:01:10 17° NNE 21:04:52 10° ENE
USA 276 2.2 20:58:18 10° W 21:01:27 61° S 21:04:06 14° ESE
COSMOS 2406 3.8 20:58:29 10° SW 21:04:11 64° NW 21:09:54 10° NNE
NOSS 3-2 (A) 3.7 21:01:25 10° S 21:06:48 43° ESE 21:12:54 10° NE
USA 267 3.5 21:01:04 10° ENE 21:07:17 44° SE 21:13:29 10° SSW
CZ-2C R/B 3.6 21:02:53 10° N 21:07:54 50° WNW 21:12:54 10° SW
Cosmos 1821 Rocket 4.4 21:02:41 10° SSW 21:08:49 69° WNW 21:15:06 10° N
X-37B 2.0 21:06:39 10° SW 21:09:14 23° S 21:10:24 19° SE
Cosmos 2082 Rocket 2.2 21:04:05 10° SSW 21:09:45 72° ESE 21:15:25 10° NNE
MetOp-B 4.2 21:04:57 10° SSE 21:10:20 81° WSW 21:15:44 10° NNW
Cosmos 1184 Rocket 2.8 21:07:39 10° S 21:10:53 62° E 21:14:11 10° NNE
Cosmos 676 Rocket 4.1 21:06:43 10° S 21:11:58 62° ESE 21:17:16 10° NNE
Cosmos 2278 4.3 21:07:49 10° NW 21:13:24 54° WSW 21:18:55 10° S
CARTOSAT-1 4.0 21:10:27 16° SE 21:13:40 47° ENE 21:17:50 10° N
Cosmos 1867 3.6 21:09:15 10° SSW 21:14:36 62° SE 21:20:01 10° NE
NOSS 3-2 (C) 4.1 21:09:56 10° S 21:14:56 32° ESE 21:20:33 10° NE
Cosmos 2322 Rocket 2.7 21:11:58 10° NNW 21:17:32 50° NE 21:21:53 16° ESE
Cosmos 1933 Rocket 4.0 21:14:15 13° SSE 21:17:54 44° E 21:22:07 10° NNE
Cosmos 1666 Rocket 3.9 21:14:04 10° SSW 21:18:22 67° WNW 21:22:42 10° N
ERS-1 Rocket 3.2 21:16:10 16° SE 21:20:05 58° ENE 21:25:02 10° N
Cosmos 841 Rocket 4.3 21:16:38 10° NNW 21:21:34 40° NE 21:25:15 17° ESE
SPOT 5 2.9 21:22:09 19° SE 21:25:04 52° ENE 21:29:22 10° N
deb Kosmos-1763 4.2 21:22:08 10° SSW 21:25:46 77° WNW 21:29:27 10° NNE
ERBS 3.9 21:22:42 10° WNW 21:25:48 34° N 21:28:52 10° ENE
Cosmos 468 Rocket 4.0 21:22:18 10° NNW 21:27:40 82° ENE 21:31:33 19° SSE
Cosmos 2123 Rocket 4.5 21:22:22 10° NNW 21:28:29 62° W 21:34:37 10° S
Cosmos 44 3.6 21:24:24 10° NW 21:29:11 60° NE 21:32:46 19° ESE
Cosmos 2360 Rocket 3.1 21:24:09 10° NNW 21:29:28 38° NE 21:33:38 15° ESE
Cosmos 1602 3.9 21:28:56 18° SSE 21:31:40 53° E 21:35:32 10° NNE
Cosmos 1500 4.5 21:34:03 21° ESE 21:34:56 23° E 21:37:57 10° NE
Cosmos 1703 Rocket 3.6 21:32:27 10° N 21:36:49 66° ENE 21:39:27 23° SSE
Cosmos 1980 Rocket 3.2 21:32:54 10° NW 21:38:11 40° WSW 21:43:14 11° S
FAST 4.4 21:35:38 10° N 21:38:22 63° E 21:39:15 36° SSE
Meteor 1-20 Rocket 4.3 21:33:50 10° S 21:39:40 86° ESE 21:45:34 10° NNE
COSMOS 2428 4.5 21:36:23 10° NNW 21:40:56 23° NE 21:45:28 10° E
Cosmos 1437 Rocket 2.6 21:37:43 10° N 21:41:32 72° ENE 21:43:30 27° SSE
IGS 5A 4.2 21:38:22 13° S 21:41:57 50° W 21:46:00 10° NNW
Cosmos 2100 Rocket 4.5 21:38:31 20° SSE 21:42:20 41° E 21:48:02 10° NNE
Cosmos 1605 Rocket 3.9 21:36:23 10° S 21:42:31 90° E 21:48:39 10° N
Cosmos 1954 Rocket 4.1 21:37:44 10° SSW 21:43:04 81° WNW 21:48:27 10° NNE
Landsat 7 4.4 21:39:57 12° S 21:44:13 53° W 21:48:54 10° NNW
Okean 1-7 3.0 21:40:18 10° N 21:44:39 71° ENE 21:47:04 25° SSE
Spot 2 Rocket 4.1 21:40:04 12° S 21:44:42 55° W 21:49:44 10° NNW
USA 234 3.3 21:39:52 19° SE 21:44:43 71° SW 21:51:16 10° WNW
Cosmos 1741 Rocket 4.3 21:40:48 16° S 21:44:44 46° ESE 21:49:47 10° NE
Cosmos 405 Rocket 2.5 21:44:27 17° S 21:47:11 83° E 21:50:58 10° NNE
Cosmos 1570 Rocket 4.2 21:42:31 10° NNW 21:47:49 62° ENE 21:50:58 24° SE
CZ-4B DEB 4.5 21:47:08 26° S 21:48:51 71° WSW 21:52:12 10° NNW
Cosmos 1633 Rocket 4.3 21:44:45 10° SW 21:48:58 42° WNW 21:53:11 10° N
Okean 1 3.5 21:45:15 10° NNW 21:49:18 71° W 21:51:52 21° S
ATLAS 3B R/B 3.6 21:48:52 21° SE 21:50:27 23° ESE 21:55:29 10° ENE
Cosmos 2242 Rocket 3.8 21:47:04 10° NNW 21:51:29 69° W 21:54:29 20° S
Cosmos 2173 Rocket 4.3 21:49:15 22° SSE 21:52:55 46° E 21:58:42 10° NNE
Iridium 4 Rocket 3.8 21:51:54 27° SE 21:53:23 35° E 21:57:11 10° NNE
Cosmos 2208 Rocket 4.3 21:48:43 10° NNW 21:53:58 59° ENE 21:56:51 26° SE
Cosmos 1833 Rocket 4.0 21:48:43 10° WSW 21:54:02 42° NW 21:59:25 10° NNE
SAR-Lupe-2 3.5 21:55:31 10° NNE 21:59:06 67° ESE 22:00:38 32° S
Cosmos 2333 Rocket 3.5 21:54:57 10° NNW 22:00:07 32° NE 22:04:16 14° E
Meteor 1-19 Rocket 4.3 21:55:01 10° NNW 22:00:25 71° W 22:04:12 20° S
Cosmos 1515 3.8 21:58:48 10° NNW 22:02:38 70° W 22:04:29 29° S
USA 238 DEB 3.6 21:57:55 10° SW 22:04:35 84° SE 22:11:36 10° NE
USA 238 3.6 21:58:02 10° SW 22:04:42 83° SE 22:11:42 10° NE
SL-4 R/B 1.6 22:02:50 10° WSW 22:06:42 78° S 22:08:50 23° E
Cosmos 1763 Rocket 3.9 22:03:29 10° NNW 22:08:43 58° WSW 22:11:51 24° S
Cosmos 1459 Rocket 4.1 22:06:54 24° SSE 22:10:44 61° E 22:17:01 10° NNE
Cosmos 2016 Rocket 4.5 22:08:56 26° SE 22:12:02 45° E 22:18:03 10° NNE
Cosmos 2221 Rocket 4.0 22:09:00 10° N 22:13:22 51° ENE 22:14:58 34° SE
Cosmos 1242 Rocket 3.8 22:12:33 10° N 22:15:43 27° ENE 22:16:23 26° E
FALCON 9 DEB 3.1 22:15:20 10° WSW 22:18:51 87° NNW 22:21:04 21° ENE
Meteor 1-14 Rocket 4.4 22:15:25 15° SSW 22:20:28 81° WNW 22:26:29 10° NNE
Cosmos 2084 Rocket 3.5 22:19:23 35° S 22:20:48 51° SE 22:25:00 10° NE
Resurs 01 Rocket 4.3 22:19:29 10° WSW 22:21:23 13° W 22:23:18 10° WNW
Cosmos 967 Rocket 4.5 22:15:00 10° NW 22:21:25 82° SW 22:24:44 30° SSE
Cosmos 1536 3.8 22:21:12 29° E 22:21:28 29° E 22:24:57 10° NNE
CENTAUR R/B 2.5 22:16:00 10° SSW 22:22:02 72° SE 22:29:16 10° NE
Meteor 1-13 Rocket 4.2 22:18:03 10° N 22:23:37 74° ENE 22:26:10 33° SSE
Cosmos 1356 4.5 22:24:33 30° E 22:24:33 30° E 22:27:18 10° NNE
Cosmos 2346 Rocket 4.5 22:18:13 10° N 22:24:17 68° ENE 22:27:14 31° SSE
Meteor 2-4 Rocket 3.8 22:19:30 10° NNW 22:25:10 73° W 22:28:10 28° S
Cosmos 2061 Rocket 4.2 22:24:03 30° SSE 22:26:59 55° E 22:33:01 10° NNE
Lacrosse 5 2.7 22:22:33 10° WNW 22:27:12 37° SW 22:28:46 30° S
Terra 2.3 22:31:11 28° SSW 22:33:30 53° W 22:38:12 10° NNW
MOS 1-B Rocket 4.2 22:29:17 10° NNE 22:34:45 46° E 22:36:38 34° SE
SL-27 R/B 2.3 22:34:57 51° SW 22:35:40 76° WNW 22:38:59 10° NNE
USA 276 3.6 22:34:35 10° W 22:36:27 26° WSW 22:36:27 26° WSW
Cosmos 1802 Rocket 4.0 22:35:44 28° S 22:39:18 78° E 22:45:39 10° NNE
BREEZE-M DEB (TANK) 3.4 22:35:47 10° W 22:39:24 68° S 22:52:02 10° ESE
SL-16 R/B 3.0 22:36:04 10° NW 22:41:24 42° WSW 22:44:01 26° SSW
Cosmos 2219 Rocket 2.8 22:40:58 10° NNW 22:46:32 51° NE 22:49:17 28° ESE
Cosmos 2322 3.8 22:41:47 10° NNW 22:47:28 68° NE 22:49:51 35° SE
MTI 3.8 22:47:22 10° NNE 22:50:13 72° NNE 22:50:13 72° NNE
USA 267 3.3 22:44:07 10° ENE 22:50:41 83° NNW 22:57:14 10° WSW
Cosmos 540 Rocket 4.1 22:48:06 10° NW 22:53:04 47° WSW 22:54:58 32° SSW
Cosmos 2082 Rocket 4.1 22:49:25 10° WSW 22:54:22 30° NW 22:59:19 10° NNE
EO 1 Del DPAF 4.4 22:51:18 10° NNE 22:54:13 29° E 22:54:13 29° E
Cosmos 1816 Rocket 4.4 22:48:28 10° N 22:54:48 89° E 22:57:29 37° S
Lacrosse 4 Rocket 2.5 22:58:03 29° E 22:58:03 29° E 23:00:55 10° NE
NOSS 3-2 (A) 4.1 22:51:36 10° WSW 22:57:29 58° NW 23:04:19 10° NE
Thor Agena Rocket 3.8 22:56:01 10° NNE 23:00:58 49° E 23:01:57 43° SE
Cosmos 2322 Rocket 3.2 22:56:18 10° NW 23:01:28 36° WSW 23:03:41 27° SSW
Cosmos 2333 4.2 22:56:16 10° NNW 23:02:07 83° ENE 23:04:16 41° SE
ERBS 3.4 22:59:23 10° WNW 23:02:34 42° NNE 23:03:27 33° NE
Cosmos 841 Rocket 4.4 22:58:38 10° NW 23:03:28 38° WSW 23:05:19 29° SSW
NOSS 3-2 (C) 3.7 22:59:24 10° SW 23:05:18 71° NW 23:12:11 10° NE
SL-16 R/B 4.5 23:04:32 10° NNW 23:08:37 20° NNE 23:12:42 10° ENE
Cosmos 44 4.5 23:05:55 10° WNW 23:10:12 30° WSW 23:11:10 28° SW
COSMOS 2487 3.2 23:11:39 41° ENE 23:11:39 41° ENE 23:14:11 10° NNE
CRYOSAT 2 4.3 23:07:07 10° N 23:12:03 86° W 23:13:25 48° S
Cosmos 2360 Rocket 2.6 23:08:11 10° NW 23:13:40 51° WSW 23:15:23 38° SSW
Tsikada Rocket 4.0 23:08:51 10° NNW 23:15:14 76° W 23:17:47 38° S
Cosmos 44 Rocket 3.5 23:12:30 10° NW 23:17:29 70° NE 23:19:07 42° ESE
Cosmos 1666 3.1 23:21:05 48° WSW 23:21:34 52° WNW 23:25:17 10° N
Cosmos 1674 Rocket 3.5 23:17:27 10° NNW 23:21:48 76° W 23:22:23 63° SSW
COSMOS 2428 2.7 23:20:21 10° NNW 23:26:08 80° ENE 23:28:02 44° SE
USA 234 4.3 23:27:12 24° SSW 23:28:30 26° SW 23:33:51 10° WNW
NOSS 0 Rocket 4.3 23:24:18 10° NNW 23:30:31 61° NE 23:33:28 32° ESE
ALOS 2 2.5 23:30:35 66° SE 23:31:09 81° ENE 23:35:34 10° NNW
Cosmos 1743 2.8 23:31:25 63° ENE 23:31:25 63° ENE 23:35:06 10° NNE
Cosmos 2297 Rocket 4.2 23:31:44 13° E 23:31:59 13° E 23:34:34 10° ENE
Cosmos 1980 4.5 23:27:09 10° NNW 23:32:38 46° NE 23:35:28 26° ESE
Cosmos 489 Rocket 4.4 23:26:19 10° NNW 23:32:41 86° WSW 23:34:49 45° SSE
Cosmos 1271 Rocket 2.6 23:32:59 10° NNW 23:36:40 77° WNW 23:36:40 77° WNW
Meteor 1-11 Rocket 4.3 23:35:44 29° SW 23:38:32 55° WNW 23:44:14 10° N
ATLAS 3B R/B 2.5 23:36:03 24° SW 23:40:18 88° SE 23:47:02 10° NE
Cosmos 1733 Rocket 3.6 23:39:26 43° WSW 23:40:25 54° WNW 23:44:47 10° N
Cosmos 1503 Rocket 4.4 23:39:59 44° SE 23:40:34 46° ESE 23:45:42 10° NE
Cosmos 2237 Rocket 2.9 23:35:56 10° NNW 23:41:26 49° NE 23:44:07 28° ESE
Meteor 2-11 Rocket 4.4 23:42:30 47° S 23:44:22 77° E 23:50:30 10° NNE
Cosmos 1378 3.6 23:41:04 10° NNW 23:44:32 52° W 23:44:32 52° W
Cosmos 2333 Rocket 2.3 23:39:07 10° NW 23:44:52 67° WSW 23:46:14 50° S
SL-4 R/B 3.2 23:42:34 10° W 23:44:24 27° W 23:44:24 27° W
Cosmos 1486 Rocket 3.9 23:45:24 56° S 23:46:31 82° ESE 23:51:46 10° NNE
Cosmos 1242 Rocket 4.1 23:47:26 10° NW 23:50:23 27° W 23:50:23 27° W
